GW3497 Weather Reports


time (UTC)temp
F
wind
direction
speed
knots
gust
knots
rain 1hr
in
rain 24hr
in
rain mn
in
humidity
%
barometer
mb
20260506072902 50 42 3.5 7.8 0.00 0.00 0.00 76 1013.3
20260506072659 49 334 6.1 9.6 0.00 0.00 0.00 81 1013.3
20260506071903 49 28 4.3 9.6 0.00 0.00 0.00 81 1013.2
20260506071403 0 63 4.3 7.8 0.00 0.00 0.00 1013.2
20260506070903 0 345 3.5 4.3 0.00 0.00 0.00 1013.2
20260506070403 0 345 3.5 7.8 0.00 0.00 0.00 1013.2
20260506061858 46 0 4.3 9.6 0.00 0.00 0.00 84 1013.0
20260506061356 45 58 4.3 7.8 0.00 0.00 0.00 85 1013.0
20260506060855 45 14 2.6 7.8 0.00 0.00 0.00 84 1013.0
20260506060355 45 0 2.6 6.1 0.00 0.00 0.00 85 1013.0
20260506051352 44 59 3.5 10.4 0.00 0.00 0.00 86 1012.7
20260506050852 44 47 2.6 9.6 0.00 0.00 0.00 86 1012.7
20260506050351 44 25 3.5 9.6 0.00 0.00 0.00 86 1012.8
20260506044852 44 0 3.5 8.7 0.00 0.00 0.00 86 1012.7
20260506044349 44 0 2.6 8.7 0.00 0.00 0.00 86 1012.7
20260506043850 44 344 2.6 6.1 0.00 0.00 0.00 85 1012.8
20260506043350 44 0 0.9 5.2 0.00 0.00 0.00 85 1012.7
20260506042851 44 78 1.7 5.2 0.00 0.00 0.00 85 1012.9
20260506042349 44 3 1.7 3.5 0.00 0.00 0.00 85 1012.8
20260506041854 44 28 0.9 5.2 0.00 0.00 0.00 85 1012.9
20260506041656 45 55 1.7 8.7 0.00 0.00 0.00 85 1012.9
20260506040852 45 32 2.6 8.7 0.00 0.00 0.00 85 1012.9
20260506040349 45 0 0.9 4.3 0.00 0.00 0.00 85 1012.9
20260506040233 45 52 1.7 7.8 0.00 0.00 0.00 85 1012.8
20260506035349 45 56 1.7 7.8 0.00 0.00 0.00 85 1012.8
20260506035033 45 42 3.5 5.2 0.00 0.00 0.00 85 1012.9
20260506034805 45 65 1.7 6.1 0.00 0.00 0.00 85 1012.8
20260506033349 45 49 1.7 6.1 0.00 0.00 0.00 84 1012.9
20260506032848 45 31 1.7 5.2 0.00 0.00 0.00 85 1012.9
20260506032348 45 49 1.7 6.1 0.00 0.00 0.00 84 1012.8
20260506031848 45 14 3.5 6.1 0.00 0.00 0.00 85 1012.8
20260506031348 45 0 3.5 7.8 0.00 0.00 0.00 85 1012.9
20260506030848 45 47 1.7 7.8 0.00 0.00 0.00 85 1012.9
20260506030654 46 56 0.9 6.1 0.00 0.00 0.00 84 1013.0
20260506025848 46 47 1.7 4.3 0.00 0.00 0.00 84 1013.0
20260506025349 46 3 1.7 6.1 0.00 0.00 0.00 84 1013.0
20260506024848 46 41 1.7 6.1 0.00 0.00 0.00 84 1013.0
20260506024348 46 0 2.6 5.2 0.00 0.00 0.00 84 1013.0
20260506023850 46 61 1.7 5.2 0.00 0.00 0.00 84 1013.0
20260506023349 46 45 1.7 9.6 0.00 0.00 0.00 84 1013.1
20260506023316 46 55 2.6 6.1 0.00 0.00 0.00 84 1013.1
20260506023312 46 58 1.7 9.6 0.00 0.00 0.00 84 1013.1
20260506021848 46 56 0.9 4.3 0.00 0.00 0.00 84 1013.2
20260506021350 46 0 2.6 7.8 0.00 0.00 0.00 84 1013.1
20260506020849 46 62 2.6 9.6 0.00 0.00 0.00 84 1013.1
20260506020348 46 25 4.3 9.6 0.00 0.00 0.00 83 1013.1
20260506015850 46 56 4.3 10.4 0.00 0.00 0.00 84 1013.1
20260506015349 46 23 3.5 10.4 0.00 0.00 0.00 83 1013.1
20260506015211 46 79 3.5 6.1 0.00 0.00 0.00 84 1013.1
20260506014348 47 63 3.5 8.7 0.00 0.00 0.00 84 1013.2
20260506013849 47 62 3.5 8.7 0.00 0.00 0.00 84 1013.1
20260506013346 47 65 3.5 7.8 0.00 0.00 0.00 84 1013.2
20260506012849 47 52 2.6 8.7 0.00 0.00 0.00 84 1013.3
20260506012653 47 41 4.3 8.7 0.00 0.00 0.00 84 1013.2
20260506011848 47 353 3.5 6.1 0.00 0.00 0.00 84 1013.2
20260506011351 47 63 3.5 6.1 0.00 0.00 0.00 85 1013.4
20260506010849 47 63 2.6 5.2 0.00 0.00 0.00 85 1013.3
20260506010349 47 23 2.6 7.8 0.00 0.00 0.00 85 1013.4
20260506005848 47 59 2.6 7.8 0.00 0.00 0.00 85 1013.3
20260506005345 48 58 4.3 7.8 0.00 0.00 0.00 85 1013.2
20260506004848 48 34 1.7 8.7 0.00 0.00 0.00 85 1013.2
20260506004347 48 38 4.3 8.7 0.00 0.00 0.00 84 1013.2
20260506003847 48 56 4.3 8.7 0.00 0.00 0.00 84 1013.2
20260506003347 48 11 2.6 12.2 0.00 0.00 0.00 84 1013.2
20260506003216 48 52 4.3 12.2 0.00 0.00 0.00 83 1013.2
20260506002346 48 58 3.5 9.6 0.00 0.00 0.00 83 1013.2
20260506001848 48 39 4.3 9.6 0.00 0.00 0.00 83 1013.2
20260506001345 48 51 5.2 9.6 0.00 0.00 0.00 84 1013.3
20260506000845 48 51 5.2 9.6 0.00 0.00 0.00 84 1013.3
20260506000341 48 71 5.2 8.7 0.00 0.00 0.00 84 1013.3
20260505235839 48 49 4.3 7.8 0.00 0.00 0.00 84 1013.2
20260505235339 48 32 4.3 7.8 0.00 0.00 0.00 85 1013.3
20260505234841 49 56 3.5 8.7 0.00 0.00 0.00 84 1013.4
20260505234339 49 54 2.6 8.7 0.00 0.00 0.00 85 1013.4
20260505233838 49 58 1.7 7.8 0.00 0.00 0.00 85 1013.4
20260505233339 49 62 3.5 7.8 0.00 0.00 0.00 85 1013.4
20260505232838 49 94 3.5 6.1 0.00 0.00 0.00 85 1013.3
20260505232338 49 34 2.6 7.8 0.00 0.00 0.00 85 1013.3
20260505231841 49 59 3.5 7.8 0.00 0.00 0.00 85 1013.3
20260505231645 49 351 2.6 9.6 0.00 0.00 0.00 85 1013.5
20260505230841 49 54 4.3 9.6 0.00 0.00 0.00 84 1013.5
20260505230353 49 44 2.6 8.7 0.00 0.00 0.00 84 1013.5
20260505225837 49 41 5.2 8.7 0.00 0.00 0.00 84 1013.5
20260505225340 49 78 3.5 8.7 0.00 0.00 0.00 84 1013.4
20260505225210 49 61 3.5 8.7 0.00 0.00 0.00 84 1013.4
20260505224337 49 44 4.3 9.6 0.00 0.00 0.00 84 1013.5
20260505223835 49 49 4.3 9.6 0.00 0.00 0.00 84 1013.4
20260505223649 49 48 4.3 9.6 0.00 0.00 0.00 84 1013.4
20260505222834 49 11 3.5 8.7 0.00 0.00 0.00 83 1013.5
20260505222335 49 48 4.3 11.3 0.00 0.00 0.00 83 1013.5
20260505221836 49 18 5.2 11.3 0.00 0.00 0.00 83 1013.4
20260505221335 49 44 6.1 12.2 0.00 0.00 0.00 82 1013.5
20260505220833 50 63 4.3 12.2 0.00 0.00 0.00 82 1013.5
20260505220651 50 39 5.2 10.4 0.00 0.00 0.00 82 1013.5
20260505220231 50 58 3.5 10.4 0.00 0.00 0.00 82 1013.5
20260505215331 50 56 5.2 11.3 0.00 0.00 0.00 81 1013.4
20260505214833 50 0 5.2 11.3 0.00 0.00 0.00 81 1013.3
20260505214333 50 47 4.3 8.7 0.00 0.00 0.00 81 1013.3
20260505213834 50 55 5.2 11.3 0.00 0.00 0.00 81 1013.3
20260505213332 50 58 5.2 11.3 0.00 0.00 0.00 81 1013.3
20260505212833 50 54 3.5 11.3 0.00 0.00 0.00 80 1013.3
20260505212331 50 354 6.1 11.3 0.00 0.00 0.00 80 1013.3
20260505211830 51 52 6.1 11.3 0.00 0.00 0.00 80 1013.3
20260505211329 51 32 4.3 10.4 0.00 0.00 0.00 80 1013.2
20260505210830 51 49 6.1 10.4 0.00 0.00 0.00 80 1013.3
20260505210330 51 54 4.3 11.3 0.00 0.00 0.00 80 1013.1
20260505205831 51 54 6.1 11.3 0.00 0.00 0.00 79 1013.2
20260505205330 51 38 5.2 11.3 0.00 0.00 0.00 79 1013.2
20260505204948 51 32 5.2 12.2 0.00 0.00 0.00 78 1013.0
20260505204919 51 62 6.1 11.3 0.00 0.00 0.00 79 1013.1
20260505203826 52 47 8.7 12.2 0.00 0.00 0.00 78 1013.0
20260505203326 52 62 7.0 12.2 0.00 0.00 0.00 78 1013.0
20260505202826 52 62 4.3 13.0 0.00 0.00 0.00 78 1013.0
20260505202324 52 79 5.2 13.0 0.00 0.00 0.00 77 1012.9
20260505201824 53 59 7.0 13.0 0.00 0.00 0.00 77 1012.9
20260505201645 53 31 3.5 12.2 0.00 0.00 0.00 76 1012.9
20260505200826 53 55 5.2 12.2 0.00 0.00 0.00 76 1012.9
20260505200322 53 54 4.3 10.4 0.00 0.00 0.00 76 1012.8
20260505195828 53 56 5.2 9.6 0.00 0.00 0.00 75 1012.7
20260505195323 53 65 2.6 8.7 0.00 0.00 0.00 75 1012.5
20260505194822 53 30 3.5 7.8 0.00 0.00 0.00 75 1012.6
20260505194323 53 39 3.5 10.4 0.00 0.00 0.00 74 1012.5
20260505193824 53 39 4.3 12.2 0.00 0.00 0.00 74 1012.4
20260505193522 54 63 4.3 10.4 0.00 0.00 0.00 73 1012.3
20260505193435 54 55 3.5 12.2 0.00 0.00 0.00 73 1012.4
20260505192321 54 41 6.1 12.2 0.00 0.00 0.00 73 1012.2
20260505191820 54 44 7.0 12.2 0.00 0.00 0.00 73 1012.2
20260505191322 54 41 6.1 13.0 0.00 0.00 0.00 73 1012.1
20260505190823 54 42 6.1 13.0 0.00 0.00 0.00 74 1012.1
20260505190320 54 49 6.1 11.3 0.00 0.00 0.00 74 1012.0
20260505185822 54 56 5.2 12.2 0.00 0.00 0.00 74 1012.0
20260505185320 55 61 5.2 12.2 0.00 0.00 0.00 74 1012.0
20260505184820 55 62 6.1 11.3 0.00 0.00 0.00 74 1012.0
20260505184320 55 42 5.2 11.3 0.00 0.00 0.00 74 1012.0
20260505183826 55 51 6.1 12.2 0.00 0.00 0.00 75 1011.9
20260505183326 55 56 7.8 12.2 0.00 0.00 0.00 74 1011.9
20260505182826 55 58 5.2 9.6 0.00 0.00 0.00 75 1011.8
20260505182326 56 56 6.1 11.3 0.00 0.00 0.00 75 1011.8
20260505181818 56 34 4.3 11.3 0.00 0.00 0.00 74 1011.8
20260505181319 56 59 5.2 10.4 0.00 0.00 0.00 74 1011.7
20260505181202 56 71 4.3 10.4 0.00 0.00 0.00 74 1011.8
20260505180313 56 65 5.2 8.7 0.00 0.00 0.00 74 1011.7
20260505175811 56 59 2.6 7.8 0.00 0.00 0.00 74 1011.8
20260505175306 57 51 4.3 7.8 0.00 0.00 0.00 73 1011.7
20260505174809 57 51 2.6 7.8 0.00 0.00 0.00 73 1011.7
20260505174303 57 48 3.5 7.8 0.00 0.00 0.00 73 1011.7
20260505173802 57 51 2.6 6.1 0.00 0.00 0.00 71 1011.8
20260505173300 57 38 3.5 6.1 0.00 0.00 0.00 71 1011.7
20260505173159 57 65 2.6 4.3 0.00 0.00 0.00 70 1011.7
20260505172308 58 27 1.7 3.5 0.00 0.00 0.00 70 1011.6
20260505171804 58 45 1.7 1.7 0.00 0.00 0.00 70 1011.6
20260505171259 58 27 0.0 1.7 0.00 0.00 0.00 68 1011.7
20260505170758 58 28 1.7 1.7 0.00 0.00 0.00 68 1011.7
20260505170309 0 13 0.0 0.9 0.00 0.00 0.00 1011.7
20260505165757 58 68 0.9 1.7 0.00 0.00 0.00 68 1011.7
20260505165246 58 68 0.9 3.5 0.00 0.00 0.00 68 1011.7
20260505164743 58 73 1.7 3.5 0.00 0.00 0.00 68 1011.7
20260505164539 58 54 1.7 5.2 0.00 0.00 0.00 68 1011.7
20260505163742 59 52 3.5 5.2 0.00 0.00 0.00 67 1011.6
20260505163242 59 45 2.6 5.2 0.00 0.00 0.00 68 1011.7
20260505162739 59 62 3.5 6.1 0.00 0.00 0.00 68 1011.8
20260505162241 59 35 3.5 6.1 0.00 0.00 0.00 67 1011.7
20260505161739 59 48 3.5 6.1 0.00 0.00 0.00 67 1011.6
20260505161242 59 51 1.7 5.2 0.00 0.00 0.00 67 1011.6
20260505161054 60 59 3.5 4.3 0.00 0.00 0.00 67 1011.6
20260505160239 60 28 3.5 4.3 0.00 0.00 0.00 68 1011.6
20260505153234 60 27 2.6 3.5 0.00 0.00 0.00 65 1011.7
20260505153101 60 32 0.9 2.6 0.00 0.00 0.00 65 1011.8
20260505152232 60 48 1.7 3.5 0.00 0.00 0.00 65 1011.8
20260505151732 0 42 0.9 3.5 0.00 0.00 0.00 1011.8
20260505151535 0 354 1.7 2.6 0.00 0.00 0.00 1011.8
20260505150739 61 354 1.7 2.6 0.00 0.00 0.00 62 1011.8
20260505150249 61 18 1.7 3.5 0.00 0.00 0.00 62 1011.8
20260505140247 63 87 1.7 2.6 0.00 0.00 0.00 63 1012.1
20260505140235 63 87 0.9 2.6 0.00 0.00 0.00 63 1012.0
20260505130229 0 58 1.7 6.1 0.00 0.00 0.00 1012.3
20260505124730 0 113 4.3 5.2 0.00 0.00 0.00 1012.3
20260505124533 65 0.0 0.0 0.00 0.00 0.00 63 1012.3
20260505123729 65 0.0 0.0 0.00 0.00 0.00 63 1012.3
20260505123230 64 80 0.9 0.9 0.00 0.00 0.00 67 1012.4
20260505122731 64 80 0.9 1.7 0.00 0.00 0.00 67 1012.4
20260505122228 63 104 1.7 6.1 0.00 0.00 0.00 67 1012.4
20260505121729 62 109 3.5 6.1 0.00 0.00 0.00 67 1012.5
20260505121225 62 65 2.6 5.2 0.00 0.00 0.00 69 1012.4
20260505121045 62 51 5.2 5.2 0.00 0.00 0.00 69 1012.3
20260505120418 61 32 1.7 2.6 0.00 0.00 0.00 68 1012.3
20260505120343 62 54 2.6 3.5 0.00 0.00 0.00 68 1012.3
20260505115224 0 102 2.6 2.6 0.00 0.00 0.00 1012.3
20260505114716 62 102 2.6 2.6 0.00 0.00 0.00 68 1012.4
20260505114518 0 32 1.7 1.7 0.00 0.00 0.00 1012.5
20260505113715 0 353 1.7 2.6 0.00 0.00 0.00 1012.5
20260505113213 61 355 2.6 54.7 0.00 0.00 0.00 71 1012.5
20260505112712 61 37 5.2 54.7 0.00 0.00 0.00 71 1012.5
20260505112212 0 78 2.6 3.5 0.00 0.00 0.00 1012.6
20260505112056 61 321 3.5 3.5 0.00 0.00 0.00 71 1012.6
20260505111206 61 47 4.3 4.3 0.00 0.00 0.00 71 1012.6
20260505110706 61 47 4.3 4.3 0.00 0.00 0.00 71 1012.6
20260505110202 61 337 4.3 5.2 0.00 0.00 0.00 71 1012.8
20260505102203 60 71 2.6 2.6 0.00 0.00 0.00 69 1012.9
20260505101701 60 35 3.5 4.3 0.00 0.00 0.00 77 1012.9
20260505101201 60 86 3.5 4.3 0.00 0.00 0.00 77 1012.9
20260505100701 60 79 4.3 4.3 0.00 0.00 0.00 77 1012.9
20260505100201 60 35 4.3 4.3 0.00 0.00 0.00 77 1012.9
20260505095707 0 90 3.5 3.5 0.00 0.00 0.00 1013.0
20260505095206 59 35 2.6 2.6 0.00 0.00 0.00 77 1013.0
20260505094949 59 4 1.7 1.7 0.00 0.00 0.00 77 1013.0
20260505094448 0 51 1.7 1.7 0.00 0.00 0.00 1013.1
20260505093658 0 0.0 0.0 0.00 0.00 0.00 1013.2
20260505093159 0 0.0 0.0 0.00 0.00 0.00 1013.3
20260505092701 0 0.0 0.0 0.00 0.00 0.00 1013.2
20260505092156 0 0.0 0.0 0.00 0.00 0.00 1013.1
20260505091947 57 0.0 0.0 0.00 0.00 0.00 82 1013.2
20260505091157 57 0.0 0.0 0.00 0.00 0.00 82 1013.3
20260505090654 56 0.0 0.0 0.00 0.00 0.00 86 1013.3
20260505090143 56 0.0 0.0 0.00 0.00 0.00 86 1013.2
20260505085642 56 0.0 0.0 0.00 0.00 0.00 86 1013.4
20260505085143 55 0.0 0.0 0.00 0.00 0.00 86 1013.3
20260505084644 55 0.0 0.0 0.00 0.00 0.00 88 1013.3
20260505084143 53 0.0 0.0 0.00 0.00 0.00 90 1013.3
20260505083644 53 0.0 0.0 0.00 0.00 0.00 90 1013.3
20260505083143 52 0.0 0.0 0.00 0.00 0.00 90 1013.3
20260505082642 52 0.0 0.0 0.00 0.00 0.00 90 1013.2
20260505082141 52 0.0 0.0 0.00 0.00 0.00 90 1013.2
20260505081641 52 0.0 0.0 0.00 0.00 0.00 90 1013.4
20260505081139 52 0.0 0.0 0.00 0.00 0.00 90 1013.4
20260505080923 52 0.0 0.0 0.00 0.00 0.00 91 1013.4
20260505080138 52 0.0 0.0 0.00 0.00 0.00 91 1013.3
20260505075632 51 0.0 0.0 0.00 0.00 0.00 91 1013.3
20260505075136 51 0.0 0.0 0.00 0.00 0.00 91 1013.3
20260505074914 51 0.0 0.0 0.00 0.00 0.00 91 1013.3
20260505074416 51 0.0 0.0 0.00 0.00 0.00 92 1013.3
20260505073631 51 0.0 0.0 0.00 0.00 0.00 92 1013.3